Effective Sunday, March 17, 2024, the National Weather Service National Data Buoy Center will discontinue its Dial-A-Buoy Interactive Voice Response system. For more information, see Service Change Notice 24-06 (PDF).

Station CRYV2 - 8638595 - South Craney Island, VA Image indicating link to RSS feed of recent meteorological observations for station CRYV2


Conditions at CRYV2 as of
(11:48 pm EST on 02/21/2024)
0448 GMT on 02/22/2024:
     

Click on the graph icon in the table below to see a time series plot of the last five days of that observation.

5-day plot - Wind Direction Wind Direction (WDIR):ENE ( 60 deg true )
5-day plot - Wind Speed Wind Speed (WSPD): 4.1 kts
5-day plot - Wind Gust Wind Gust (GST): 5.1 kts
5-day plot - Atmospheric Pressure Atmospheric Pressure (PRES):30.22 in
5-day plot - Air Temperature Air Temperature (ATMP): 40.8 °F
5-day plot - Wind Chill Wind Chill (CHILL): 37.8 °F
5-day plot - Wind Speed at 10 Meters Wind Speed at 10 meters (WSPD10M): 3.9 kts
5-day plot - Wind Speed at 20 Meters Wind Speed at 20 meters (WSPD20M): 3.9 kts
5-day plot -  Wind Speed, Wind Gust and Atmospheric Pressure Combined plot of Wind Speed, Gust, and Air Pressure
NOS Water Level Observation Network Water Level
Previous observations
TIME
(EST)
5-day plot - Wind Direction
WDIR
 
5-day plot - Wind Speed
WSPD
kts
5-day plot - Wind Gust
GST
kts
5-day plot - Wave Height
WVHT
ft
5-day plot - Dominant Wave Period
DPD
sec
5-day plot - Average Wave Period
APD
sec
5-day plot - Mean Wave Direction
MWD
 
5-day plot - Atmospheric Pressure
PRES
in
5-day plot - Pressure Tendency
PTDY
in
5-day plot - Air Temperature
ATMP
°F
5-day plot - Water Temperature
WTMP
°F
5-day plot - Dew Point
DEWP
°F
5-day plot - Salinity
SAL
psu
5-day plot - Visibility
VIS
nmi
5-day plot - Tide (above MLLW)
TIDE
ft
2024-02-21 11:42 pmENE 2.9 2.9----30.23- 41.0-----
2024-02-21 11:36 pm NE 2.9 4.1----30.23- 41.0-----
2024-02-21 11:30 pm NE 2.9 4.1----30.23- 41.0-----
2024-02-21 11:24 pmENE 4.1 5.1----30.23- 41.0-----
2024-02-21 11:18 pm NE 4.1 5.1----30.23- 41.0-----
2024-02-21 11:12 pmENE 4.1 5.1----30.23- 41.0-----
2024-02-21 11:06 pm NE 4.1 6.0----30.24- 41.0-----
2024-02-21 11:00 pm NE 4.1 5.1----30.24-0.04 41.0-----
2024-02-21 10:54 pmENE 4.1 5.1----30.24- 41.2-----
2024-02-21 10:48 pm NE 2.9 5.1----30.24- 41.0-----
2024-02-21 10:42 pm NE 5.1 5.1----30.24- 41.0-----
2024-02-21 10:36 pm NE 5.1 7.0----30.24- 40.8-----
2024-02-21 10:30 pm NE 5.1 8.0----30.24- 41.0-----
2024-02-21 10:24 pm NE 5.1 6.0----30.24- 41.0-----
2024-02-21 10:18 pm NE 5.1 6.0----30.24- 40.8-----
2024-02-21 10:12 pm NE 4.1 5.1----30.25- 40.8-----
2024-02-21 10:06 pm NE 4.1 5.1----30.24- 40.8-----
2024-02-21 10:00 pmENE 5.1 6.0----30.25-0.02 40.8-----
2024-02-21 09:54 pmENE 5.1 5.1----30.25- 40.8-----
2024-02-21 09:48 pmENE 4.1 5.1----30.25- 40.8-----
2024-02-21 09:42 pm E 4.1 5.1----30.25- 40.8-----
2024-02-21 09:36 pmENE 5.1 6.0----30.25- 40.8-----
2024-02-21 09:30 pmENE 6.0 7.0----30.25- 40.8-----
2024-02-21 09:24 pmENE 5.1 6.0----30.26- 40.8-----
2024-02-21 09:18 pmENE 6.0 7.0----30.26- 41.0-----
2024-02-21 09:12 pmENE 6.0 8.0----30.27- 41.2-----
2024-02-21 09:06 pmENE 7.0 8.0----30.27- 41.2-----
2024-02-21 09:00 pmENE 6.0 8.0----30.27+0.00 41.2-----
2024-02-21 08:54 pmENE 7.0 8.0----30.27- 41.4-----
2024-02-21 08:48 pm NE 7.0 8.0----30.27- 41.4-----
2024-02-21 08:42 pm NE 7.0 8.9----30.27- 41.4-----
2024-02-21 08:36 pmENE 8.9 9.9----30.27- 41.4-----
2024-02-21 08:30 pmENE 8.0 9.9----30.27- 41.2-----
2024-02-21 08:24 pmENE 7.0 8.9----30.27- 41.5-----
2024-02-21 08:18 pm NE 5.1 8.9----30.27- 41.4-----
2024-02-21 08:12 pmENE 7.0 9.9----30.27- 41.4-----
2024-02-21 08:06 pmENE 8.0 8.9----30.27- 41.4-----
2024-02-21 08:00 pmENE 7.0 9.9----30.27-0.01 41.4-----
2024-02-21 07:54 pmENE 7.0 9.9----30.27- 41.5-----
2024-02-21 07:48 pmENE 7.0 9.9----30.27- 41.4-----
2024-02-21 07:42 pmENE 8.9 11.1----30.26- 41.4-----
2024-02-21 07:36 pmENE 8.9 11.1----30.26- 41.4-----
2024-02-21 07:30 pmENE 8.0 11.1----30.26- 41.7-----
2024-02-21 07:24 pm E 8.0 8.9----30.26- 41.5-----
2024-02-21 07:18 pm E 8.0 9.9----30.26- 41.7-----
2024-02-21 07:12 pm E 8.0 11.1----30.26- 41.7-----
2024-02-21 07:06 pm E 8.0 9.9----30.26- 41.9-----
2024-02-21 07:00 pm E 7.0 8.9----30.27-0.02 42.1-----
2024-02-21 06:54 pm E 9.9 12.0----30.27- 42.1-----
2024-02-21 06:48 pm E 8.9 12.0----30.26- 42.1-----
2024-02-21 06:42 pm E 11.1 12.0----30.27- 42.1-----
2024-02-21 06:36 pm E 8.0 12.0----30.27- 42.4-----
2024-02-21 06:30 pmENE 7.0 9.9----30.27- 42.4-----
2024-02-21 06:24 pm NE 8.0 8.9----30.27- 42.3-----
2024-02-21 06:00 pmENE 8.0 9.9----30.27-0.03 42.8-----
2024-02-21 05:54 pmENE 8.0 12.0----30.27- 42.6-----
2024-02-21 05:48 pmENE 8.9 11.1----30.27- 42.6-----
2024-02-21 05:42 pmENE 8.0 11.1----30.27- 42.6-----
2024-02-21 05:36 pmENE 8.9 11.1----30.27- 43.0-----
2024-02-21 05:30 pmENE 8.0 11.1----30.27- 43.2-----
2024-02-21 05:24 pm NE 8.0 9.9----30.27- 43.2-----
2024-02-21 05:18 pm NE 8.0 9.9----30.28- 43.3-----
2024-02-21 05:12 pm NE 9.9 12.0----30.28- 43.3-----
2024-02-21 05:06 pmENE 7.0 11.1----30.28- 43.5-----
2024-02-21 05:00 pmENE 8.0 12.0----30.28-0.03 43.7-----
2024-02-21 04:54 pmENE 11.1 13.0----30.28- 43.5-----
2024-02-21 04:48 pmENE 8.9 9.9----30.29- 43.5-----
2024-02-21 04:42 pm NE 8.0 12.0----30.29- 43.9-----
2024-02-21 04:36 pmENE 8.9 12.0----30.28- 43.9-----
2024-02-21 04:30 pm NE 8.9 11.1----30.29- 43.9-----
2024-02-21 04:24 pmNNE 8.9 12.0----30.29- 43.7-----
2024-02-21 04:18 pmNNE 8.0 12.0----30.29- 43.7-----
2024-02-21 04:12 pmNNE 8.0 9.9----30.29- 43.9-----
2024-02-21 04:06 pm NE 8.0 11.1----30.28- 43.9-----
2024-02-21 04:00 pm NE 9.9 11.1----30.29-0.05 43.9-----
2024-02-21 03:54 pmENE 8.9 12.0----30.28- 45.0-----
2024-02-21 03:48 pm NE 8.9 11.1----30.29- 44.1-----
2024-02-21 03:42 pmENE 8.0 12.0----30.29- 44.2-----
2024-02-21 03:36 pmNNE 7.0 12.0----30.29- 43.9-----
2024-02-21 03:30 pm NE 11.1 12.0----30.29- 43.7-----
2024-02-21 03:24 pmENE 7.0 12.0----30.29- 43.9-----
2024-02-21 03:18 pm NE 11.1 12.0----30.29- 43.5-----
2024-02-21 03:12 pm NE 8.9 12.0----30.29- 43.3-----
2024-02-21 03:06 pm NE 8.0 11.1----30.29- 43.5-----
2024-02-21 03:00 pm NE 8.0 11.1----30.30-0.06 43.5-----
2024-02-21 02:54 pm NE 8.0 11.1----30.30- 43.7-----
2024-02-21 02:48 pmENE 7.0 12.0----30.30- 43.7-----
2024-02-21 02:42 pm NE 8.0 9.9----30.30- 43.3-----
2024-02-21 02:36 pm NE 7.0 8.9----30.30- 43.7-----
2024-02-21 02:30 pmENE 7.0 9.9----30.30- 43.3-----
2024-02-21 02:24 pmENE 7.0 8.9----30.30- 43.2-----
2024-02-21 02:18 pm NE 8.9 11.1----30.30- 43.0-----
2024-02-21 02:12 pmNNE 7.0 8.0----30.30- 43.0-----
2024-02-21 02:06 pmNNE 6.0 8.9----30.31- 43.0-----
2024-02-21 02:00 pmNNE 8.0 9.9----30.31-0.07 42.8-----
2024-02-21 01:54 pmNNE 8.0 11.1----30.31- 42.8-----
2024-02-21 01:48 pmNNE 7.0 11.1----30.31- 42.8-----
2024-02-21 01:42 pm NE 8.9 12.0----30.31- 42.8-----
2024-02-21 01:36 pm NE 8.9 11.1----30.31- 43.2-----
2024-02-21 01:30 pm NE 8.9 12.0----30.31- 42.6-----
2024-02-21 01:24 pm NE 9.9 12.0----30.32- 42.6-----
2024-02-21 01:18 pmNNE 9.9 14.0----30.32- 42.6-----
2024-02-21 01:12 pm NE 7.0 11.1----30.32- 42.8-----
2024-02-21 01:06 pmNNE 8.0 12.0----30.33- 42.4-----
2024-02-21 01:00 pmNNE 11.1 13.0----30.33-0.06 42.4-----
2024-02-21 12:54 pmNNE 8.9 12.0----30.34- 42.3-----
2024-02-21 12:48 pm NE 8.0 13.0----30.34- 42.3-----
2024-02-21 12:42 pmNNE 8.9 12.0----30.34- 42.3-----
2024-02-21 12:36 pmNNE 9.9 14.0----30.35- 42.3-----
2024-02-21 12:30 pmNNE 9.9 12.0----30.35- 42.4-----
2024-02-21 12:24 pmNNE 12.0 15.0----30.35- 42.1-----
2024-02-21 12:18 pm NE 9.9 12.0----30.35- 42.1-----
2024-02-21 12:12 pmNNE 8.9 12.0----30.36- 41.9-----
2024-02-21 12:06 pmNNE 9.9 14.0----30.36- 41.7-----
2024-02-21 12:00 pmNNE 9.9 12.0----30.36-0.03 41.5-----
2024-02-21 11:54 amNNE 12.0 13.0----30.37- 41.5-----
2024-02-21 11:48 amNNE 9.9 14.0----30.37- 41.4-----
2024-02-21 11:42 am N 11.1 14.0----30.37- 41.4-----
2024-02-21 11:36 amNNE 9.9 14.0----30.37- 41.4-----
2024-02-21 11:30 amNNE 11.1 13.0----30.37- 41.4-----
2024-02-21 11:24 amNNE 11.1 13.0----30.38- 41.2-----
2024-02-21 11:18 amNNE 11.1 14.0----30.38- 41.5-----
2024-02-21 11:12 amNNE 11.1 15.0----30.38- 41.2-----
2024-02-21 11:06 am NE 11.1 15.0----30.38- 41.2-----
2024-02-21 11:00 amNNE 12.0 15.9----30.38+0.00 41.2-----
2024-02-21 10:54 amNNE 13.0 17.1----30.38- 41.0-----
2024-02-21 10:48 am NE 13.0 17.1----30.38- 41.2-----
2024-02-21 10:42 amNNE 13.0 17.1----30.38- 41.0-----
2024-02-21 10:36 amNNE 14.0 19.0----30.38- 41.0-----
2024-02-21 10:30 am NE 15.0 17.1----30.38- 41.0-----
2024-02-21 10:24 amNNE 13.0 17.1----30.39- 41.0-----
2024-02-21 10:18 amNNE 13.0 17.1----30.39- 41.0-----
2024-02-21 10:12 amNNE 14.0 15.9----30.39- 41.0-----
2024-02-21 10:06 amNNE 13.0 18.1----30.39- 40.8-----
2024-02-21 10:00 amNNE 13.0 18.1----30.39+0.02------
2024-02-21 09:54 amNNE 12.0 18.1----30.39-------
2024-02-21 09:48 amNNE 13.0 19.0----30.39- 40.6-----
2024-02-21 09:42 amNNE 12.0 17.1----30.40- 40.8-----
2024-02-21 09:36 amNNE 14.0 17.1----30.39- 40.6-----
2024-02-21 09:30 amNNE 14.0 17.1----30.40- 40.3-----
2024-02-21 09:24 amNNE 14.0 17.1----30.40- 40.6-----
2024-02-21 09:18 amNNE 13.0 19.0----30.40- 40.5-----
2024-02-21 09:12 amNNE 13.0 17.1----30.39- 40.5-----
2024-02-21 09:06 amNNE 13.0 18.1----30.39- 40.6-----
2024-02-21 09:00 amNNE 13.0 17.1----30.39+0.01 40.3-----
2024-02-21 08:54 amNNE 14.0 17.1----30.39- 40.3-----
2024-02-21 08:48 amNNE 12.0 15.0----30.39- 40.5-----
2024-02-21 08:42 amNNE 15.0 19.0----30.39- 40.1-----
2024-02-21 08:36 amNNE 12.0 17.1----30.38- 40.5-----
2024-02-21 08:30 amNNE 12.0 15.0----30.38- 40.3-----
2024-02-21 08:24 amNNE 12.0 17.1----30.38- 40.1-----
2024-02-21 08:18 amNNE 12.0 15.9----30.38- 40.1-----
2024-02-21 08:12 amNNE 12.0 14.0----30.38- 39.7-----
2024-02-21 08:06 amNNE 13.0 15.9----30.38- 39.6-----
2024-02-21 08:00 am NE 11.1 15.9----30.37+0.00 39.9-----
2024-02-21 07:54 am NE 15.0 18.1----30.37- 39.7-----
2024-02-21 07:48 am NE 14.0 17.1----30.37- 39.7-----
2024-02-21 07:42 amNNE 12.0 17.1----30.37- 39.6-----
2024-02-21 07:36 am NE 13.0 15.9----30.37- 39.6-----
2024-02-21 07:30 amNNE 12.0 15.9----30.37- 39.4-----
2024-02-21 07:24 amNNE 11.1 12.0----30.37- 39.4-----
2024-02-21 07:18 amNNE 11.1 12.0----30.37- 39.4-----
2024-02-21 07:12 am NE 11.1 14.0----30.38- 39.2-----
2024-02-21 07:06 amNNE 8.9 12.0----30.38- 39.0-----
2024-02-21 07:00 amNNE 9.9 12.0----30.37+0.00 39.0-----
2024-02-21 06:54 amNNE 8.9 15.9----30.37- 39.2-----
2024-02-21 06:48 am NE 8.9 14.0----30.37- 39.0-----
2024-02-21 06:42 am NE 9.9 12.0----30.37- 38.8-----
2024-02-21 06:36 amNNE 8.9 12.0----30.37- 38.8-----
2024-02-21 06:30 amNNE 11.1 13.0----30.37- 38.8-----
2024-02-21 06:24 amNNE 11.1 14.0----30.38- 39.0-----
2024-02-21 06:18 amNNE 9.9 12.0----30.38- 38.8-----
2024-02-21 06:12 amNNE 12.0 14.0----30.38- 38.8-----
2024-02-21 06:06 am NE 11.1 14.0----30.38- 39.0-----
2024-02-21 06:00 am NE 11.1 14.0----30.38+0.01 39.0-----
2024-02-21 05:54 amNNE 9.9 13.0----30.37- 39.2-----
2024-02-21 05:48 amNNE 9.9 13.0----30.37- 39.0-----
2024-02-21 05:42 amNNE 8.9 13.0----30.37- 39.0-----
2024-02-21 05:36 am NE 9.9 13.0----30.37- 39.2-----
2024-02-21 05:30 amNNE 9.9 12.0----30.37- 39.2-----
2024-02-21 05:24 amNNE 8.9 11.1----30.37- 39.2-----
2024-02-21 05:18 amNNE 8.0 12.0----30.37- 39.2-----
2024-02-21 05:12 am NE 11.1 13.0----30.37- 39.4-----
2024-02-21 05:06 am NE 12.0 14.0----30.37- 39.4-----
2024-02-21 05:00 amNNE 11.1 14.0----30.37-0.01 39.4-----
2024-02-21 04:54 amNNE 9.9 14.0----30.37- 39.4-----
2024-02-21 04:48 amNNE 11.1 14.0----30.37- 39.4-----
2024-02-21 04:42 amNNE 9.9 13.0----30.38- 39.6-----
2024-02-21 04:36 am NE 11.1 14.0----30.37- 39.6-----
2024-02-21 04:30 am NE 11.1 13.0----30.37- 39.6-----
2024-02-21 04:24 am NE 12.0 15.0----30.37- 39.4-----
2024-02-21 04:18 am NE 12.0 14.0----30.37- 39.6-----
2024-02-21 04:12 amNNE 9.9 11.1----30.37- 39.6-----
2024-02-21 04:06 am NE 9.9 14.0----30.37- 39.7-----
2024-02-21 04:00 am NE 12.0 15.0----30.37-0.02 39.7-----
2024-02-21 03:54 am NE 12.0 14.0----30.37- 39.7-----
2024-02-21 03:48 am NE 11.1 14.0----30.36- 39.6-----
2024-02-21 03:42 am NE 11.1 12.0----30.36- 39.9-----
2024-02-21 03:36 am NE 8.9 13.0----30.37- 39.7-----
2024-02-21 03:30 am NE 11.1 14.0----30.37- 39.9-----
2024-02-21 03:24 am NE 11.1 14.0----30.37- 39.7-----
2024-02-21 03:18 am NE 11.1 12.0----30.37- 39.7-----
2024-02-21 03:12 am NE 11.1 14.0----30.36- 39.9-----
2024-02-21 03:06 am NE 12.0 14.0----30.36- 39.9-----
2024-02-21 03:00 am NE 11.1 15.0----30.37-0.01 40.1-----
2024-02-21 02:54 am NE 12.0 15.0----30.37- 39.9-----
2024-02-21 02:48 am NE 12.0 15.0----30.37- 40.1-----
2024-02-21 02:42 am NE 12.0 15.0----30.37- 40.1-----
2024-02-21 02:36 am NE 9.9 13.0----30.37- 40.1-----
2024-02-21 02:30 am NE 12.0 14.0----30.38- 40.3-----
2024-02-21 02:24 am NE 12.0 15.0----30.38- 39.9-----
2024-02-21 02:18 am NE 11.1 13.0----30.38- 40.1-----
2024-02-21 02:12 am NE 9.9 13.0----30.38- 40.1-----
2024-02-21 02:06 am NE 12.0 15.0----30.38- 40.3-----
2024-02-21 02:00 am NE 13.0 18.1----30.38-0.01------
2024-02-21 01:54 am NE 13.0 15.0----30.38-------
2024-02-21 01:48 am NE 14.0 18.1----30.38- 40.5-----
2024-02-21 01:42 am NE 13.0 15.9----30.39- 40.3-----
2024-02-21 01:36 am NE 13.0 15.0----30.39- 40.5-----
2024-02-21 01:30 am NE 12.0 15.9----30.39- 40.5-----
2024-02-21 01:24 am NE 12.0 14.0----30.39- 40.5-----
2024-02-21 01:18 am NE 11.1 15.0----30.39- 40.6-----
2024-02-21 01:12 am NE 13.0 15.9----30.38- 40.6-----
2024-02-21 01:06 am NE 13.0 15.9----30.38- 40.6-----
2024-02-21 01:00 am NE 13.0 15.0----30.39-0.01 40.6-----
2024-02-21 12:54 am NE 12.0 14.0----30.39- 40.6-----
2024-02-21 12:48 amENE 12.0 14.0----30.39- 41.0-----
2024-02-21 12:42 amENE 13.0 17.1----30.39- 41.0-----
2024-02-21 12:36 amENE 14.0 15.9----30.39- 40.6-----
2024-02-21 12:30 amENE 12.0 15.0----30.39- 41.0-----
2024-02-21 12:24 amENE 12.0 13.0----30.39- 40.8-----
2024-02-21 12:18 amENE 12.0 14.0----30.38- 40.8-----
2024-02-21 12:12 amENE 12.0 15.9----30.38- 40.8-----
2024-02-21 12:06 amENE 12.0 17.1----30.38- 41.0-----
2024-02-21 12:00 amENE 12.0 15.9----30.38-0.01 40.8-----
2024-02-20 11:54 pm NE 13.0 15.0----30.38- 41.0-----